Current weather by "City, St" or "zip code"  
 
Advertise Here

Current Conditions: St. Charles, St. Charles County Smartt Airport, MO

Light Snow Fog/Mist


29.0 F

Last Updated on Jan 27 2021, 11:54 am CST
Humidity: 85%
Wind Speed: N 11.5 mph
Barometer 30.33 in
Dewpoint: 25.0 F
Visibility: 0.75 mi
Precip: 00.03 in
Heat Index: NA
Wind Chill: 19 F
Current conditions at:

St. Charles, St. Charles County Smartt Airport, MO (KSET)

Lat: 38.93056 Lon: 90.4325

Local Radar Image active severe weather and emergency alerts image image weather storm and storm spotter reports image weather observation monitoring service image
Local
Radar
Active
Alerts
Storm Reports Obs
Monitoring

Sign-up For Email & Text Message Weather Alert Notification Services


Advertise Here

Observation History for St. Charles, St. Charles County Smartt Airport, MO


Time Wind
(mph)
Vis
(mi)
Weather Precip (in) Temperature (F) Relative
Humidity
Wind
Chill
(F)
Heat
Index
(F)
Pressure
Air Dwpt altimeter
(in)
sea level
(mb)
Rmks
11:54 am CST N 11.5 0.75 Light Snow Fog/Mist 00.03 29.0 25.0 85% 19 NA 30.33 1027.4
10:54 am CST N 9.2 0.75 Light Snow Fog/Mist 00.05 30.0 26.1 85% 22 NA 30.33 1027.2
9:54 am CST NW 6.9 0.75 Light Snow Fog/Mist 00.01 30.0 26.1 85% 23 NA 30.29 1026.2
8:54 am CST NE 8.1 1.50 Light Snow Fog/Mist Trace 30.0 26.1 85% 22 NA 30.23 1023.9
7:54 am CST N 5.8 2.50 Light Snow Trace 30.0 25.0 82% 24 NA 30.23 1024.1
6:54 am CST NE 8.1 10.00 Overcast -- 30.0 24.1 79% 22 NA 30.23 1024.0
5:54 am CST NE 8.1 10.00 Overcast -- 30.0 24.1 79% 22 NA 30.23 1024.1
4:54 am CST N 6.9 10.00 Overcast -- 30.0 24.1 79% 23 NA 30.22 1023.7
3:54 am CST N 5.8 10.00 Overcast -- 30.0 24.1 79% 24 NA 30.22 1023.5
2:54 am CST NE 5.8 10.00 Overcast Trace 30.0 24.1 79% 24 NA 30.21 1023.4
1:54 am CST NE 11.5 10.00 Overcast Trace 30.0 24.1 79% 20 NA 30.18 1022.2
12:54 am CST NE 10.4 10.00 Overcast -- 30.0 25.0 82% 21 NA 30.20 1022.9
11:54 pm CST N 5.8 10.00 Overcast -- 31.0 25.0 79% 25 NA 30.22 1023.6
10:54 pm CST NE 3.5 10.00 Overcast -- 31.0 25.0 79% NA NA 30.20 1023.0
9:54 pm CST N 4.6 10.00 Overcast -- 30.0 24.1 79% 25 NA 30.19 1022.6
8:54 pm CST N 8.1 10.00 Overcast -- 30.0 24.1 79% 22 NA 30.17 1022.1
7:54 pm CST N 5.8 10.00 Overcast -- 30.0 24.1 79% 24 NA 30.15 1021.2
6:54 pm CST N 9.2 10.00 Overcast -- 31.0 25.0 79% 23 NA 30.13 1020.4
5:54 pm CST NW 8.1 10.00 Overcast -- 31.0 26.1 82% 24 NA 30.11 1019.8
4:54 pm CST NW 12.7 10.00 Overcast -- 32.0 25.0 75% 22 NA 30.09 1019.1
3:54 pm CST NW 10.4 10.00 Overcast -- 33.0 26.1 75% 25 NA 30.07 1018.5
2:54 pm CST NW 9.2 10.00 Overcast -- 33.0 26.1 75% 25 NA 30.04 1017.4
1:54 pm CST NW 15.0 10.00 Overcast -- 34.0 28.0 79% 24 NA 30.01 1016.4
12:54 pm CST W 17.3 10.00 Overcast -- 35.0 28.0 76% 25 NA 29.98 1015.4

Regional Weather Observation


Pittsfield, Pittsfield Penstone Municipal Airport, IL (KPPQ)

Overcast
24.0 F

St. Louis Lambert International Airport, MO (KSTL)

Snow Freezing Fog
29.0 F

St. Louis Regional Airport, IL (KALN)

Snow
30.0 F

St. Louis, Spirit Of St. Louis Airport, MO (KSUS)

Light Snow Fog/Mist
28.0 F

Jacksonville Municipal Airport, IL (KIJX)

Light Snow
24.0 F

Mount Sterling, Mount Sterling Municipal Airport, IL (KI63)

Light Snow
22.0 F